When you browse on this site, cookies collect data to enhance your experience and personalize the content and advertising you see.
Visit our Privacy Policy to learn more. By continuing to use the site, you agree to this use of cookies and data.
  • In Austria
  • List of Countries
  • For 7 days
  • Water Temperature
  • Satellite Maps
  • Weather Map
  • News
  • Weather Widgets
  • user-avatar
    Login

    Hourly Weather Mongu

    Today, 18 January, Friday

    Time Temperature Precipitation Wind Pressure Humidity
    00:00 +21°C° 0.6 mm 2 mps 673 mmHg 90%
    01:00 +21°C° 0.6 mm 2 mps 673 mmHg 92%
    02:00 +21°C° 0 mm 2 mps 673 mmHg 92%
    03:00 +21°C° 0.2 mm 2 mps 673 mmHg 93%
    04:00 +21°C° 0.2 mm 2 mps 672 mmHg 93%
    05:00 +20°C° 0.2 mm 2 mps 672 mmHg 94%
    06:00 +21°C° 0.1 mm 2 mps 673 mmHg 92%
    07:00 +21°C° 0.1 mm 3 mps 673 mmHg 90%
    08:00 +22°C° 0 mm 3 mps 674 mmHg 87%
    09:00 +25°C° 1.2 mm 3 mps 674 mmHg 82%
    10:00 +26°C° 1.2 mm 4 mps 674 mmHg 77%
    11:00 +27°C° 1.2 mm 4 mps 674 mmHg 73%
    12:00 +28°C° 1.8 mm 3 mps 673 mmHg 69%
    13:00 +29°C° 1.8 mm 3 mps 673 mmHg 65%
    14:00 +30°C° 1.8 mm 2 mps 672 mmHg 62%
    15:00 +30°C° 0.7 mm 2 mps 672 mmHg 61%
    16:00 +30°C° 0.7 mm 2 mps 672 mmHg 60%
    17:00 +30°C° 0.7 mm 2 mps 671 mmHg 60%
    18:00 +28°C° 1 mm 2 mps 671 mmHg 69%
    19:00 +26°C° 1 mm 2 mps 671 mmHg 78%
    20:00 +24°C° 1 mm 1 mps 671 mmHg 87%
    21:00 +23°C° 0 mm 2 mps 672 mmHg 88%
    22:00 +23°C° 0 mm 2 mps 672 mmHg 89%
    23:00 +23°C° 0 mm 2 mps 673 mmHg 90%

    Tomorrow, 19 January, Saturday

    Time Temperature Precipitation Wind Pressure Humidity
    00:00 +21°C° 0 mm 2 mps 672 mmHg 90%
    01:00 +21°C° 0 mm 3 mps 672 mmHg 91%
    02:00 +21°C° 0 mm 3 mps 672 mmHg 92%
    03:00 +21°C° 0 mm 3 mps 672 mmHg 93%
    04:00 +21°C° 0 mm 2 mps 672 mmHg 94%
    05:00 +21°C° 0 mm 2 mps 672 mmHg 94%
    06:00 +21°C° 0 mm 3 mps 672 mmHg 92%
    07:00 +22°C° 0 mm 3 mps 673 mmHg 90%
    08:00 +22°C° 0 mm 3 mps 673 mmHg 87%
    09:00 +26°C° 0 mm 3 mps 674 mmHg 77%
    10:00 +28°C° 0 mm 4 mps 674 mmHg 67%
    11:00 +30°C° 0 mm 4 mps 675 mmHg 56%
    12:00 +32°C° 0.1 mm 4 mps 674 mmHg 53%
    13:00 +33°C° 0.1 mm 3 mps 674 mmHg 49%
    14:00 +33°C° 0.1 mm 3 mps 674 mmHg 45%
    15:00 +33°C° 0 mm 3 mps 673 mmHg 46%
    16:00 +32°C° 0 mm 2 mps 673 mmHg 47%
    17:00 +31°C° 0 mm 2 mps 673 mmHg 48%
    18:00 +29°C° 0 mm 2 mps 673 mmHg 55%
    19:00 +27°C° 0 mm 2 mps 673 mmHg 63%
    20:00 +26°C° 0 mm 2 mps 673 mmHg 70%
    21:00 +24°C° 0.4 mm 2 mps 673 mmHg 76%
    22:00 +23°C° 0.4 mm 2 mps 673 mmHg 82%
    23:00 +21°C° 0.4 mm 2 mps 673 mmHg 89%

    Day after tomorrow, 20 January, Sunday

    Time Temperature Precipitation Wind Pressure Humidity
    00:00 +21°C° 0 mm 2 mps 673 mmHg 90%
    01:00 +20°C° 0 mm 2 mps 673 mmHg 92%
    02:00 +20°C° 0 mm 2 mps 673 mmHg 94%
    03:00 +21°C° 0 mm 1 mps 673 mmHg 95%
    04:00 +20°C° 0 mm 1 mps 673 mmHg 96%
    05:00 +20°C° 0 mm 1 mps 673 mmHg 97%
    06:00 +21°C° 0 mm 1 mps 673 mmHg 93%
    07:00 +20°C° 0 mm 0 mps 674 mmHg 89%
    08:00 +21°C° 0 mm 0 mps 674 mmHg 85%
    09:00 +25°C° 0 mm 1 mps 675 mmHg 77%
    10:00 +27°C° 0 mm 1 mps 675 mmHg 69%
    11:00 +29°C° 0 mm 1 mps 676 mmHg 60%
    12:00 +30°C° 0.5 mm 1 mps 675 mmHg 58%
    13:00 +30°C° 0.5 mm 1 mps 675 mmHg 56%
    14:00 +31°C° 0.5 mm 1 mps 675 mmHg 54%
    15:00 +30°C° 0.4 mm 2 mps 674 mmHg 61%
    16:00 +28°C° 0.4 mm 2 mps 673 mmHg 67%
    17:00 +26°C° 0.4 mm 2 mps 673 mmHg 74%
    18:00 +25°C° 0.5 mm 2 mps 673 mmHg 78%
    19:00 +24°C° 0.5 mm 2 mps 673 mmHg 82%
    20:00 +23°C° 0.5 mm 2 mps 674 mmHg 86%
    21:00 +23°C° 0.2 mm 1 mps 674 mmHg 87%
    22:00 +23°C° 0.2 mm 1 mps 675 mmHg 87%
    23:00 +22°C° 0.2 mm 1 mps 675 mmHg 88%

    21 January, Monday

    Time Temperature Precipitation Wind Pressure Humidity
    00:00 +22°C° 0.1 mm 1 mps 675 mmHg 89%
    01:00 +22°C° 0.1 mm 1 mps 675 mmHg 90%
    02:00 +22°C° 0.1 mm 1 mps 674 mmHg 90%
    03:00 +22°C° 0.1 mm 1 mps 674 mmHg 91%
    04:00 +20°C° 0.1 mm 0 mps 674 mmHg 91%
    05:00 +20°C° 0.1 mm 0 mps 674 mmHg 92%
    06:00 +22°C° 0 mm 1 mps 675 mmHg 89%
    07:00 +23°C° 0 mm 1 mps 675 mmHg 86%
    08:00 +24°C° 0 mm 1 mps 676 mmHg 83%
    09:00 +25°C° 0.1 mm 2 mps 676 mmHg 75%
    10:00 +27°C° 0.1 mm 2 mps 677 mmHg 66%
    11:00 +29°C° 0.1 mm 3 mps 677 mmHg 57%
    12:00 +30°C° 0 mm 3 mps 676 mmHg 54%
    13:00 +31°C° 0 mm 3 mps 675 mmHg 50%
    14:00 +33°C° 0 mm 3 mps 675 mmHg 46%
    15:00 +31°C° 0 mm 3 mps 674 mmHg 46%
    16:00 +31°C° 0 mm 3 mps 674 mmHg 47%
    17:00 +31°C° 0 mm 3 mps 673 mmHg 47%
    18:00 +29°C° 0 mm 3 mps 673 mmHg 52%
    19:00 +27°C° 0 mm 2 mps 673 mmHg 58%
    20:00 +26°C° 0 mm 2 mps 673 mmHg 64%
    21:00 +25°C° 0 mm 2 mps 673 mmHg 65%
    22:00 +24°C° 0 mm 2 mps 674 mmHg 66%
    23:00 +24°C° 0 mm 1 mps 674 mmHg 67%

    22 January, Tuesday

    Time Temperature Precipitation Wind Pressure Humidity
    00:00 +23°C° 0 mm 1 mps 674 mmHg 69%
    01:00 +23°C° 0 mm 2 mps 674 mmHg 70%
    02:00 +21°C° 0 mm 2 mps 673 mmHg 72%
    03:00 +21°C° 0 mm 2 mps 673 mmHg 75%
    04:00 +20°C° 0 mm 2 mps 673 mmHg 78%
    05:00 +20°C° 0 mm 2 mps 673 mmHg 81%
    06:00 +21°C° 0 mm 2 mps 674 mmHg 78%
    07:00 +23°C° 0 mm 2 mps 674 mmHg 75%
    08:00 +24°C° 0 mm 2 mps 675 mmHg 72%
    09:00 +26°C° 0 mm 2 mps 675 mmHg 62%
    10:00 +28°C° 0 mm 2 mps 675 mmHg 51%
    11:00 +30°C° 0 mm 2 mps 676 mmHg 41%
    12:00 +31°C° 0 mm 2 mps 675 mmHg 37%
    13:00 +32°C° 0 mm 2 mps 674 mmHg 33%
    14:00 +34°C° 0 mm 2 mps 673 mmHg 29%
    15:00 +34°C° 0 mm 2 mps 673 mmHg 30%
    16:00 +34°C° 0 mm 3 mps 672 mmHg 30%
    17:00 +33°C° 0 mm 3 mps 672 mmHg 31%
    18:00 +30°C° 0 mm 2 mps 672 mmHg 36%
    19:00 +28°C° 0 mm 2 mps 672 mmHg 41%
    20:00 +26°C° 0 mm 2 mps 672 mmHg 46%
    21:00 +25°C° 0 mm 2 mps 672 mmHg 48%
    22:00 +24°C° 0 mm 2 mps 673 mmHg 50%
    23:00 +23°C° 0 mm 2 mps 673 mmHg 51%

    23 January, Wednesday

    Time Temperature Precipitation Wind Pressure Humidity
    00:00 +23°C° 0 mm 2 mps 673 mmHg 53%
    01:00 +22°C° 0 mm 1 mps 672 mmHg 55%
    02:00 +22°C° 0 mm 1 mps 672 mmHg 57%
    03:00 +21°C° 0 mm 1 mps 672 mmHg 58%
    04:00 +21°C° 0 mm 1 mps 672 mmHg 60%
    05:00 +20°C° 0 mm 1 mps 672 mmHg 61%
    06:00 +21°C° 0 mm 1 mps 672 mmHg 60%
    07:00 +21°C° 0 mm 2 mps 673 mmHg 60%
    08:00 +23°C° 0 mm 2 mps 673 mmHg 59%
    09:00 +26°C° 0 mm 2 mps 673 mmHg 52%
    10:00 +29°C° 0 mm 2 mps 674 mmHg 44%
    11:00 +31°C° 0 mm 2 mps 674 mmHg 37%
    12:00 +34°C° 0 mm 2 mps 674 mmHg 32%
    13:00 +34°C° 0 mm 1 mps 673 mmHg 27%
    14:00 +35°C° 0 mm 1 mps 673 mmHg 22%
    15:00 +36°C° 0 mm 2 mps 672 mmHg 22%
    16:00 +36°C° 0 mm 2 mps 672 mmHg 23%
    17:00 +35°C° 0 mm 2 mps 671 mmHg 23%
    18:00 +32°C° 0 mm 2 mps 671 mmHg 27%
    19:00 +29°C° 0 mm 2 mps 671 mmHg 31%
    20:00 +27°C° 0 mm 1 mps 671 mmHg 35%
    21:00 +26°C° 0 mm 1 mps 671 mmHg 38%
    22:00 +25°C° 0 mm 1 mps 672 mmHg 40%
    23:00 +24°C° 0 mm 2 mps 672 mmHg 43%
    Show more